University AP, Davis, CA, CA

10:10 PM PST on December 05, 2019 (GMT -0800)
University AP, Davis, CA

Weather History for KEDU - October, 2019

Change the Weather History Date:

Tuesday, October 8, 2019

  Actual Average (WUND) Record (WUND)
Temperature  
Mean Temperature 68 °F -  
Max Temperature 86 °F - - (-1)
Min Temperature 50 °F - - (-1)
Cooling Degree Days 3    
Growing Degree Days 18 (Base 50)    
Moisture  
Dew Point 44 °F    
Average Humidity 47    
Maximum Humidity 76    
Minimum Humidity 20    
Precipitation  
Precipitation 0.00 in - - ()
Sea Level Pressure  
Sea Level Pressure 29.84 in    
Wind  
Wind Speed 2 mph ()    
Max Wind Speed 8 mph    
Max Gust Speed -    
Visibility 9.9 miles    
Events      
Averages and records for this station are not official NWS values.
T = Trace of Precipitation, MM = Missing Value Source: Averaged Metar Reports

Daily Weather History Graph

Daily Weather History Graph

Search for Another Location

Airport or City:

Astronomy

Oct. 08, 2019 Rise Set
Actual Time 7:09 AM PDT 6:39 PM PDT
Civil Twilight 6:42 AM PDT 7:05 PM PDT
Nautical Twilight 6:12 AM PDT 7:36 PM PDT
Astronomical Twilight 5:41 AM PDT 8:07 PM PDT
Moon 4:37 PM PDT (10/8) 2:08 AM PDT (10/8)
Length of Visible Light 12h 23m
Length of Day
11h 30m
Waxing Gibbous, 78% of the Moon is Illuminated
Oct 8
Waxing Gibbous
Oct 13
Full
Oct 21
Last Quarter
Oct 27
New
Nov 4
First Quarter

Hourly Weather History & Observations

Time (PDT) Temp. Dew Point Humidity Pressure Visibility Wind Dir Wind Speed Gust Speed Precip Events Conditions
12:00 AM 59.0 °F 46.4 °F 63% 29.88 in 10.0 mi Calm Calm - N/A   Clear
12:20 AM 57.2 °F 46.4 °F 67% 29.88 in 10.0 mi Calm Calm - N/A   Clear
12:40 AM 57.2 °F 44.6 °F 63% 29.88 in 10.0 mi Calm Calm - N/A   Clear
1:00 AM 57.2 °F 44.6 °F 63% 29.88 in 10.0 mi Calm Calm - N/A   Clear
1:20 AM 57.2 °F 44.6 °F 63% 29.88 in 10.0 mi Calm Calm - N/A   Clear
1:40 AM 57.2 °F 44.6 °F 63% 29.88 in 10.0 mi Calm Calm - N/A   Clear
2:00 AM 55.4 °F 44.6 °F 67% 29.88 in 10.0 mi Calm Calm - N/A   Clear
2:20 AM 53.6 °F 42.8 °F 67% 29.88 in 10.0 mi Calm Calm - N/A   Clear
2:40 AM 55.4 °F 41.0 °F 58% 29.88 in 10.0 mi Calm Calm - N/A   Clear
2:55 AM 55.4 °F 41.0 °F 58% 29.88 in 10.0 mi Calm Calm - N/A   Clear
3:20 AM 53.6 °F 39.2 °F 58% 29.87 in 10.0 mi NNE 3.5 mph - N/A   Clear
3:40 AM 55.4 °F 42.8 °F 63% 29.87 in 10.0 mi North 3.5 mph - N/A   Clear
3:55 AM 55.4 °F 44.6 °F 67% 29.87 in 10.0 mi North 4.6 mph - N/A   Clear
4:20 AM 55.4 °F 44.6 °F 67% 29.87 in 10.0 mi Calm Calm - N/A   Clear
4:40 AM 53.6 °F 44.6 °F 72% 29.86 in 10.0 mi NNE 3.5 mph - N/A   Clear
5:00 AM 53.6 °F 44.6 °F 72% 29.86 in 10.0 mi Calm Calm - N/A   Clear
5:20 AM 53.6 °F 44.6 °F 72% 29.86 in 10.0 mi Calm Calm - N/A   Clear
5:40 AM 53.6 °F 44.6 °F 72% 29.86 in 10.0 mi Calm Calm - N/A   Clear
6:00 AM 51.8 °F 42.8 °F 71% 29.87 in 10.0 mi NW 3.5 mph - N/A   Clear
6:20 AM 50.0 °F 41.0 °F 71% 29.87 in 10.0 mi North 3.5 mph - N/A   Clear
6:40 AM 51.8 °F 44.6 °F 76% 29.87 in 10.0 mi NNW 5.8 mph - N/A   Clear
7:00 AM 53.6 °F 42.8 °F 67% 29.87 in 10.0 mi Calm Calm - N/A   Clear
7:15 AM 53.6 °F 42.8 °F 67% 29.87 in 10.0 mi NNW 4.6 mph - N/A   Clear
7:35 AM 55.4 °F 42.8 °F 63% 29.88 in 10.0 mi North 4.6 mph - N/A   Clear
8:00 AM 55.4 °F 42.8 °F 63% 29.88 in 10.0 mi North 3.5 mph - N/A   Clear
8:20 AM 57.2 °F 42.8 °F 59% 29.88 in 10.0 mi North 3.5 mph - N/A   Clear
8:40 AM 59.0 °F 44.6 °F 59% 29.88 in 10.0 mi NE 3.5 mph - N/A   Clear
8:55 AM 59.0 °F 44.6 °F 59% 29.88 in 9.0 mi NNE 4.6 mph - N/A   Clear
9:20 AM 62.6 °F 44.6 °F 52% 29.90 in 10.0 mi North 3.5 mph - N/A   Clear
9:40 AM 66.2 °F 44.6 °F 46% 29.90 in 10.0 mi North 3.5 mph - N/A   Clear
10:00 AM 66.2 °F 44.6 °F 46% 29.90 in 10.0 mi Calm Calm - N/A   Clear
10:20 AM 69.8 °F 42.8 °F 38% 29.89 in 10.0 mi South 3.5 mph - N/A   Clear
10:40 AM 71.6 °F 42.8 °F 35% 29.89 in 10.0 mi Calm Calm - N/A   Clear
11:00 AM 73.4 °F 41.0 °F 31% 29.89 in 10.0 mi Calm Calm - N/A   Clear
11:20 AM 73.4 °F 41.0 °F 31% 29.89 in 10.0 mi NE 4.6 mph - N/A   Clear
11:35 AM 75.2 °F 41.0 °F 29% 29.88 in 10.0 mi Calm Calm - N/A   Clear
12:00 PM 77.0 °F 41.0 °F 28% 29.87 in 9.0 mi Calm Calm - N/A   Clear
12:15 PM 77.0 °F 39.2 °F 26% 29.87 in 10.0 mi Calm Calm - N/A   Clear
12:40 PM 78.8 °F 41.0 °F 26% 29.86 in 9.0 mi South 4.6 mph - N/A   Clear
12:55 PM 80.6 °F 42.8 °F 26% 29.86 in 10.0 mi ESE 4.6 mph - N/A   Clear
1:20 PM 82.4 °F 44.6 °F 26% 29.85 in 10.0 mi SE 3.5 mph - N/A   Clear
1:40 PM 82.4 °F 41.0 °F 23% 29.84 in 10.0 mi SSW 4.6 mph - N/A   Clear
2:00 PM 84.2 °F 44.6 °F 25% 29.83 in 10.0 mi SSE 6.9 mph - N/A   Clear
2:20 PM 84.2 °F 44.6 °F 25% 29.82 in 9.0 mi SSE 6.9 mph - N/A   Clear
2:40 PM 84.2 °F 44.6 °F 25% 29.81 in 10.0 mi SSE 5.8 mph - N/A   Partly Cloudy
3:00 PM 84.2 °F 44.6 °F 25% 29.81 in 10.0 mi SSE 8.1 mph - N/A   Clear
3:20 PM 84.2 °F 44.6 °F 25% 29.80 in 9.0 mi South 6.9 mph - N/A   Clear
3:40 PM 86.0 °F 42.8 °F 22% 29.80 in 10.0 mi South 8.1 mph - N/A   Clear
4:00 PM 84.2 °F 39.2 °F 20% 29.80 in 10.0 mi South 5.8 mph - N/A   Clear
4:20 PM 84.2 °F 39.2 °F 20% 29.79 in 10.0 mi SSE 5.8 mph - N/A   Clear
4:40 PM 84.2 °F 41.0 °F 22% 29.78 in 10.0 mi South 5.8 mph - N/A   Clear
5:00 PM 82.4 °F 44.6 °F 26% 29.78 in 10.0 mi South 5.8 mph - N/A   Clear
5:40 PM 82.4 °F 46.4 °F 28% 29.77 in 10.0 mi SSW 6.9 mph - N/A   Clear
6:00 PM 80.6 °F 46.4 °F 30% 29.76 in 10.0 mi South 6.9 mph - N/A   Clear
6:20 PM 78.8 °F 46.4 °F 32% 29.77 in 10.0 mi SSW 5.8 mph - N/A   Clear
6:40 PM 77.0 °F 46.4 °F 34% 29.76 in 10.0 mi South 6.9 mph - N/A   Clear
7:00 PM 77.0 °F 44.6 °F 32% 29.76 in 10.0 mi SSW 6.9 mph - N/A   Clear
7:20 PM 75.2 °F 44.6 °F 34% 29.76 in 10.0 mi SW 6.9 mph - N/A   Clear
7:40 PM 73.4 °F 44.6 °F 36% 29.76 in 10.0 mi SW 6.9 mph - N/A   Clear
8:00 PM 71.6 °F 44.6 °F 38% 29.76 in 10.0 mi SW 4.6 mph - N/A   Clear
8:20 PM 69.8 °F 44.6 °F 40% 29.77 in 10.0 mi Calm Calm - N/A   Clear
8:40 PM 66.2 °F 44.6 °F 46% 29.77 in 10.0 mi WSW 5.8 mph - N/A   Clear
8:55 PM 66.2 °F 44.6 °F 46% 29.77 in 10.0 mi SW 3.5 mph - N/A   Clear
9:20 PM 66.2 °F 44.6 °F 46% 29.77 in 10.0 mi SW 4.6 mph - N/A   Clear
9:40 PM 64.4 °F 44.6 °F 49% 29.77 in 10.0 mi SW 5.8 mph - N/A   Clear
10:00 PM 64.4 °F 44.6 °F 49% 29.77 in 10.0 mi SW 4.6 mph - N/A   Clear
10:20 PM 64.4 °F 44.6 °F 49% 29.78 in 10.0 mi Calm Calm - N/A   Clear
10:35 PM 62.6 °F 44.6 °F 52% 29.78 in 10.0 mi South 3.5 mph - N/A   Clear
11:00 PM 60.8 °F 46.4 °F 59% 29.78 in 10.0 mi SSW 5.8 mph - N/A   Clear
11:20 PM 60.8 °F 46.4 °F 59% 29.78 in 10.0 mi SW 3.5 mph - N/A   Clear
11:40 PM 59.0 °F 46.4 °F 63% 29.77 in 10.0 mi Calm Calm - N/A   Clear